Location: Michelbach Markt
(48.1000°N, 15.7500°E)
Time: 11:38:51
(UTC+02:00)

Envisat - Pass Details

Date: 01 February 2022
Orbit: 764 x 765 km, 98.2° (Epoch: 17 May)

Event Time Altitude Azimuth Distance (km) Brightness Sun altitude
Rises 04:53:38 0° 14° (NNE) 3,243 6.5 -25.4°
Reaches altitude 10° 04:55:57 10° 16° (NNE) 2,313 5.7 -25.0°
Maximum altitude 05:01:04 81° 103° (ESE) 781 3.0 -24.2°
Drops below altitude 10° 05:06:09 10° 192° (SSW) 2,297 5.3 -23.3°
Sets 05:08:26 0° 193° (SSW) 3,219 6.1 -22.9°
